Location: Paris
(48.6709°N, 2.3750°E)
Time: 19:00:03
(UTC+02:00)

STARS - Pass Details

Date: 03 July 2022
Orbit: 620 x 637 km, 98.2° (Epoch: 06 August)

Event Time Altitude Azimuth Distance (km) Brightness Sun altitude
Rises 00:55:42 0° 11° (NNE) 2,934 ? -17.1°
Reaches altitude 10° 00:57:55 10° 9° (N) 2,019 ? -17.2°
Maximum altitude 01:02:17 67° 287° (WNW) 682 ? -17.4°
Enters shadow 01:04:42 25° 211° (SSW) 1,256 ? -17.5°
